Starlink 34165

operational
NORAD ID: 63997 Int'l Des: 2025-101 Owner: SPXS Country: US Constellation: starlink
LEOCIRCULAR

About Starlink 34165

Description loading...

Live Position

Loading 3D Globe...

Upcoming Passes

Altitude History

Altitude vs Time

uPlot chart will show altitude changes over time

Two-Line Element Set

1 63997U 25101D 26061.00572190 .00026286 00000-0 96051-3 0 9990
2 63997 42.9985 41.0453 0001553 190.1429 169.9391 15.27607279 45889
Epoch: Mar 2, 2026 • Age: 29 hours

Current Status

Altitude 482.2 km
Velocity 7.63 km/s
Sub-Earth Point -4.56°S, 19.86°W
Launch Date May 14, 2025
Age 0.7 years
Type internet

Technical Details

Classification Payload
Mass 575.00 kg
Dry Mass 530.00 kg
Total Mass 575.00 kg
Length 0.30 m
Diameter 4.10 m
Span 29.00 m
Shape Box + pan
Manufacturer SPXS
Bus Type Starlink V2MO
Phase Status In Orbit
Owner/State SPXS/US

Large Constellations

Loading constellations...